Find TDRS 10

NORAD ID: 27566 Int'l Des: 2002-055 Owner: GSFC Country: US operational
HEOCIRCULAR

实时位置

正在加载3D地球...

关于 TDRS 10

正在加载描述...

即将过境

Passes for default location (London). Set your location on the main map for personalized predictions.

高度历史

Loading altitude history...

两行轨道根数

1 27566U 02055A 26105.70939022 -.00000092 00000-0 00000+0 0 9995
2 27566 9.9675 43.5157 0013451 253.1726 180.3848 0.98863593 85588
Epoch: Apr 15, 2026 • Age: 19 hours

当前状态

高度 36195.0 km
速度 3.06 km/s
星下点 -1.25°S, 14.1°E
发射日期 Dec 5, 2002
运行时间 23.3 years
类型 other

技术详情

分类 Payload
质量 3189.00 kg
干质量 1514.00 kg
总质量 3189.00 kg
长度 8.40 m
直径 3.40 m
跨度 21.00 m
形状 Box + 2 Pan + 2 Dish
制造商 BOES
平台类型 HS-601
阶段状态 In Orbit
所有者/国家 GSFC/US

Most Searched